Location: Unspecified
(0.0000°N, 0.0000°E)
Time: 14:13:52
(UTC+00:00)

Vela 4A - Visible Passes

Search period start: 28 November 2021 00:00
Search period end: 08 December 2021 00:00
Orbit: 57773 x 164710 km, 31.7° (Epoch: 19 November)

Date Brightness Start Highest point End Pass type
(mag) Time Alt. Az. Time Alt. Az. Time Alt. Az.
28 Nov ? 01:56:58 10° ENE 10:02:39 89° NNW 21:46:19 10° WSW visible
29 Nov ? 16:19:10 10° E 22:06:24 89° N 03:49:40 10° W visible
30 Nov ? 18:44:17 10° ENE 00:17:50 69° N 05:58:21 10° WNW daylight
01 Dec ? 21:30:03 10° ENE 03:23:07 57° N 09:33:42 10° WNW visible
03 Dec ? 09:39:16 10° ESE 19:06:52 65° S 01:19:45 10° WSW visible
04 Dec ? 16:57:11 10° E 22:35:49 81° N 04:16:14 10° WNW visible
05 Dec ? 19:13:05 10° ENE 00:47:36 64° N 06:31:33 10° WNW visible
06 Dec ? 22:49:31 10° ENE 05:28:19 59° N 12:30:00 10° WNW visible
